Year,Month,Day,Hour,Minute,Value (Times are PST for temperature in C)
2015,06,21,00,00,16.40
2015,06,21,00,01,16.40
2015,06,21,00,02,16.30
2015,06,21,00,03,16.30
2015,06,21,00,04,16.30
2015,06,21,00,05,16.20
2015,06,21,00,06,16.20
2015,06,21,00,07,16.10
2015,06,21,00,08,16.10
2015,06,21,00,09,16.10
2015,06,21,00,10,16.00
2015,06,21,00,11,16.00
2015,06,21,00,12,16.00
2015,06,21,00,13,16.00
2015,06,21,00,14,16.00
2015,06,21,00,15,16.00
2015,06,21,00,16,16.00
2015,06,21,00,17,15.90
2015,06,21,00,18,15.90
2015,06,21,00,19,15.90
2015,06,21,00,20,15.90
2015,06,21,00,21,15.90
2015,06,21,00,22,15.80
2015,06,21,00,23,15.80
2015,06,21,00,24,15.80
2015,06,21,00,25,15.80
2015,06,21,00,26,15.80
2015,06,21,00,27,15.80
2015,06,21,00,28,15.80
2015,06,21,00,29,15.80
2015,06,21,00,30,15.80
2015,06,21,00,31,15.80
2015,06,21,00,32,15.70
2015,06,21,00,33,15.70
2015,06,21,00,34,15.70
2015,06,21,00,35,15.70
2015,06,21,00,36,15.70
2015,06,21,00,37,15.60
2015,06,21,00,38,15.60
2015,06,21,00,39,15.60
2015,06,21,00,40,15.60
2015,06,21,00,41,15.60
2015,06,21,00,42,15.60
2015,06,21,00,43,15.50
2015,06,21,00,44,15.50
2015,06,21,00,45,15.50
2015,06,21,00,46,15.50
2015,06,21,00,47,15.40
2015,06,21,00,48,15.40
2015,06,21,00,49,15.40
2015,06,21,00,50,15.40
2015,06,21,00,51,15.40
2015,06,21,00,52,15.30
2015,06,21,00,53,15.30
2015,06,21,00,54,15.30
2015,06,21,00,55,15.30
2015,06,21,00,56,15.30
2015,06,21,00,57,15.30
2015,06,21,00,58,15.30
2015,06,21,00,59,15.20
2015,06,21,01,00,15.20
2015,06,21,01,01,15.20
2015,06,21,01,02,15.20
2015,06,21,01,03,15.20
2015,06,21,01,04,15.20
2015,06,21,01,05,15.30
2015,06,21,01,06,15.30
2015,06,21,01,07,15.30
2015,06,21,01,08,15.30
2015,06,21,01,09,15.30
2015,06,21,01,10,15.30
2015,06,21,01,11,15.30
2015,06,21,01,12,15.40
2015,06,21,01,13,15.40
2015,06,21,01,14,15.40
2015,06,21,01,15,15.50
2015,06,21,01,16,15.50
2015,06,21,01,17,15.50
2015,06,21,01,18,15.60
2015,06,21,01,19,15.60
2015,06,21,01,20,15.60
2015,06,21,01,21,15.60
2015,06,21,01,22,15.60
2015,06,21,01,23,15.60
2015,06,21,01,24,15.60
2015,06,21,01,25,15.60
2015,06,21,01,26,15.60
2015,06,21,01,27,15.60
2015,06,21,01,28,15.60
2015,06,21,01,29,15.60
2015,06,21,01,30,15.60
2015,06,21,01,31,15.60
2015,06,21,01,32,15.60
2015,06,21,01,33,15.60
2015,06,21,01,34,15.70
2015,06,21,01,35,15.60
2015,06,21,01,36,15.70
2015,06,21,01,37,15.70
2015,06,21,01,38,15.60
2015,06,21,01,39,15.60
2015,06,21,01,40,15.60
2015,06,21,01,41,15.60
2015,06,21,01,42,15.60
2015,06,21,01,43,15.60
2015,06,21,01,44,15.60
2015,06,21,01,45,15.70
2015,06,21,01,46,15.70
2015,06,21,01,47,15.70
2015,06,21,01,48,15.80
2015,06,21,01,49,15.80
2015,06,21,01,50,15.80
2015,06,21,01,51,15.80
2015,06,21,01,52,15.80
2015,06,21,01,53,15.80
2015,06,21,01,54,15.80
2015,06,21,01,55,15.80
2015,06,21,01,56,15.80
2015,06,21,01,57,15.80
2015,06,21,01,58,15.80
2015,06,21,01,59,15.80
2015,06,21,02,00,15.90
2015,06,21,02,01,15.80
2015,06,21,02,02,15.80
2015,06,21,02,03,15.90
2015,06,21,02,04,15.90
2015,06,21,02,05,15.90
2015,06,21,02,06,15.90
2015,06,21,02,07,15.90
2015,06,21,02,08,15.90
2015,06,21,02,09,15.80
2015,06,21,02,10,15.80
2015,06,21,02,11,15.80
2015,06,21,02,12,15.80
2015,06,21,02,13,15.80
2015,06,21,02,14,15.80
2015,06,21,02,15,15.80
2015,06,21,02,16,15.80
2015,06,21,02,17,15.90
2015,06,21,02,18,15.90
2015,06,21,02,19,15.90
2015,06,21,02,20,15.90
2015,06,21,02,21,15.90
2015,06,21,02,22,15.90
2015,06,21,02,23,15.90
2015,06,21,02,24,15.80
2015,06,21,02,25,15.80
2015,06,21,02,26,15.80
2015,06,21,02,27,15.80
2015,06,21,02,28,15.80
2015,06,21,02,29,15.80
2015,06,21,02,30,15.80
2015,06,21,02,31,15.80
2015,06,21,02,32,15.80
2015,06,21,02,33,15.80
2015,06,21,02,34,15.80
2015,06,21,02,35,15.80
2015,06,21,02,36,15.80
2015,06,21,02,37,15.80
2015,06,21,02,38,15.80
2015,06,21,02,39,15.80
2015,06,21,02,40,15.80
2015,06,21,02,41,15.80
2015,06,21,02,42,15.80
2015,06,21,02,43,15.80
2015,06,21,02,44,15.80
2015,06,21,02,45,15.80
2015,06,21,02,46,15.70
2015,06,21,02,47,15.70
2015,06,21,02,48,15.70
2015,06,21,02,49,15.70
2015,06,21,02,50,15.70
2015,06,21,02,51,15.70
2015,06,21,02,52,15.70
2015,06,21,02,53,15.70
2015,06,21,02,54,15.70
2015,06,21,02,55,15.70
2015,06,21,02,56,15.70
2015,06,21,02,57,15.70
2015,06,21,02,58,15.70
2015,06,21,02,59,15.70
2015,06,21,03,00,15.70
2015,06,21,03,01,15.70
2015,06,21,03,02,15.70
2015,06,21,03,03,15.60
2015,06,21,03,04,15.70
2015,06,21,03,05,15.70
2015,06,21,03,06,15.60
2015,06,21,03,07,15.60
2015,06,21,03,08,15.60
2015,06,21,03,09,15.60
2015,06,21,03,10,15.60
2015,06,21,03,11,15.60
2015,06,21,03,12,15.60
2015,06,21,03,13,15.60
2015,06,21,03,14,15.60
2015,06,21,03,15,15.60
2015,06,21,03,16,15.60
2015,06,21,03,17,15.50
2015,06,21,03,18,15.50
2015,06,21,03,19,15.50
2015,06,21,03,20,15.50
2015,06,21,03,21,15.50
2015,06,21,03,22,15.50
2015,06,21,03,23,15.40
2015,06,21,03,24,15.40
2015,06,21,03,25,15.40
2015,06,21,03,26,15.40
2015,06,21,03,27,15.40
2015,06,21,03,28,15.40
2015,06,21,03,29,15.40
2015,06,21,03,30,15.40
2015,06,21,03,31,15.40
2015,06,21,03,32,15.30
2015,06,21,03,33,15.30
2015,06,21,03,34,15.30
2015,06,21,03,35,15.30
2015,06,21,03,36,15.30
2015,06,21,03,37,15.30
2015,06,21,03,38,15.30
2015,06,21,03,39,15.30
2015,06,21,03,40,15.30
2015,06,21,03,41,15.30
2015,06,21,03,42,15.30
2015,06,21,03,43,15.30
2015,06,21,03,44,15.30
2015,06,21,03,45,15.30
2015,06,21,03,46,15.30
2015,06,21,03,47,15.20
2015,06,21,03,48,15.20
2015,06,21,03,49,15.20
2015,06,21,03,50,15.20
2015,06,21,03,51,15.20
2015,06,21,03,52,15.20
2015,06,21,03,53,15.20
2015,06,21,03,54,15.10
2015,06,21,03,55,15.10
2015,06,21,03,56,15.10
2015,06,21,03,57,15.10
2015,06,21,03,58,15.10
2015,06,21,03,59,15.10
2015,06,21,04,00,15.10
2015,06,21,04,01,15.10
2015,06,21,04,02,15.10
2015,06,21,04,03,15.10
2015,06,21,04,04,15.10
2015,06,21,04,05,15.10
2015,06,21,04,06,15.10
2015,06,21,04,07,15.10
2015,06,21,04,08,15.10
2015,06,21,04,09,15.10
2015,06,21,04,10,15.10
2015,06,21,04,11,15.00
2015,06,21,04,12,15.00
2015,06,21,04,13,15.00
2015,06,21,04,14,14.90
2015,06,21,04,15,14.90
2015,06,21,04,16,14.90
2015,06,21,04,17,14.90
2015,06,21,04,18,14.80
2015,06,21,04,19,14.80
2015,06,21,04,20,14.80
2015,06,21,04,21,14.80
2015,06,21,04,22,14.80
2015,06,21,04,23,14.80
2015,06,21,04,24,14.70
2015,06,21,04,25,14.70
2015,06,21,04,26,14.70
2015,06,21,04,27,14.60
2015,06,21,04,28,14.60
2015,06,21,04,29,14.60
2015,06,21,04,30,14.50
2015,06,21,04,31,14.50
2015,06,21,04,32,14.50
2015,06,21,04,33,14.40
2015,06,21,04,34,14.40
2015,06,21,04,35,14.40
2015,06,21,04,36,14.30
2015,06,21,04,37,14.30
2015,06,21,04,38,14.30
2015,06,21,04,39,14.20
2015,06,21,04,40,14.20
2015,06,21,04,41,14.10
2015,06,21,04,42,14.10
2015,06,21,04,43,14.00
2015,06,21,04,44,14.00
2015,06,21,04,45,13.90
2015,06,21,04,46,13.90
2015,06,21,04,47,13.90
2015,06,21,04,48,13.80
2015,06,21,04,49,13.80
2015,06,21,04,50,13.80
2015,06,21,04,51,13.80
2015,06,21,04,52,13.70
2015,06,21,04,53,13.70
2015,06,21,04,54,13.70
2015,06,21,04,55,13.60
2015,06,21,04,56,13.60
2015,06,21,04,57,13.50
2015,06,21,04,58,13.40
2015,06,21,04,59,13.40
2015,06,21,05,00,13.30
2015,06,21,05,01,13.20
2015,06,21,05,02,13.10
2015,06,21,05,03,13.10
2015,06,21,05,04,13.00
2015,06,21,05,05,12.90
2015,06,21,05,06,12.90
2015,06,21,05,07,12.90
2015,06,21,05,08,12.80
2015,06,21,05,09,12.80
2015,06,21,05,10,12.80
2015,06,21,05,11,12.70
2015,06,21,05,12,12.70
2015,06,21,05,13,12.70
2015,06,21,05,14,12.70
2015,06,21,05,15,12.80
2015,06,21,05,16,12.80
2015,06,21,05,17,12.80
2015,06,21,05,18,12.80
2015,06,21,05,19,12.90
2015,06,21,05,20,12.90
2015,06,21,05,21,12.90
2015,06,21,05,22,12.90
2015,06,21,05,23,12.90
2015,06,21,05,24,12.90
2015,06,21,05,25,13.00
2015,06,21,05,26,13.00
2015,06,21,05,27,13.00
2015,06,21,05,28,13.00
2015,06,21,05,29,13.00
2015,06,21,05,30,13.10
2015,06,21,05,31,13.10
2015,06,21,05,32,13.10
2015,06,21,05,33,13.10
2015,06,21,05,34,13.10
2015,06,21,05,35,13.20
2015,06,21,05,36,13.20
2015,06,21,05,37,13.20
2015,06,21,05,38,13.20
2015,06,21,05,39,13.30
2015,06,21,05,40,13.30
2015,06,21,05,41,13.30
2015,06,21,05,42,13.30
2015,06,21,05,43,13.30
2015,06,21,05,44,13.40
2015,06,21,05,45,13.40
2015,06,21,05,46,13.40
2015,06,21,05,47,13.40
2015,06,21,05,48,13.40
2015,06,21,05,49,13.40
2015,06,21,05,50,13.50
2015,06,21,05,51,13.50
2015,06,21,05,52,13.60
2015,06,21,05,53,13.60
2015,06,21,05,54,13.60
2015,06,21,05,55,13.70
2015,06,21,05,56,13.70
2015,06,21,05,57,13.70
2015,06,21,05,58,13.70
2015,06,21,05,59,13.80
2015,06,21,06,00,13.80
2015,06,21,06,01,13.80
2015,06,21,06,02,13.80
2015,06,21,06,03,13.80
2015,06,21,06,04,13.80
2015,06,21,06,05,13.80
2015,06,21,06,06,13.90
2015,06,21,06,07,13.90
2015,06,21,06,08,13.90
2015,06,21,06,09,13.90
2015,06,21,06,10,14.00
2015,06,21,06,11,14.00
2015,06,21,06,12,14.00
2015,06,21,06,13,14.00
2015,06,21,06,14,14.10
2015,06,21,06,15,14.10
2015,06,21,06,16,14.10
2015,06,21,06,17,14.10
2015,06,21,06,18,14.10
2015,06,21,06,19,14.20
2015,06,21,06,20,14.20
2015,06,21,06,21,14.20
2015,06,21,06,22,14.20
2015,06,21,06,23,14.20
2015,06,21,06,24,14.20
2015,06,21,06,25,14.20
2015,06,21,06,26,14.20
2015,06,21,06,27,14.30
2015,06,21,06,28,14.30
2015,06,21,06,29,14.30
2015,06,21,06,30,14.40
2015,06,21,06,31,14.40
2015,06,21,06,32,14.50
2015,06,21,06,33,14.50
2015,06,21,06,34,14.60
2015,06,21,06,35,14.60
2015,06,21,06,36,14.60
2015,06,21,06,37,14.70
2015,06,21,06,38,14.70
2015,06,21,06,39,14.80
2015,06,21,06,40,14.80
2015,06,21,06,41,14.90
2015,06,21,06,42,14.90
2015,06,21,06,43,15.00
2015,06,21,06,44,15.10
2015,06,21,06,45,15.10
2015,06,21,06,46,15.20
2015,06,21,06,47,15.20
2015,06,21,06,48,15.30
2015,06,21,06,49,15.30
2015,06,21,06,50,15.30
2015,06,21,06,51,15.40
2015,06,21,06,52,15.40
2015,06,21,06,53,15.40
2015,06,21,06,54,15.40
2015,06,21,06,55,15.50
2015,06,21,06,56,15.50
2015,06,21,06,57,15.60
2015,06,21,06,58,15.60
2015,06,21,06,59,15.60
2015,06,21,07,00,15.70
2015,06,21,07,01,15.70
2015,06,21,07,02,15.80
2015,06,21,07,03,15.80
2015,06,21,07,04,15.80
2015,06,21,07,05,15.90
2015,06,21,07,06,15.90
2015,06,21,07,07,16.00
2015,06,21,07,08,16.00
2015,06,21,07,09,16.10
2015,06,21,07,10,16.10
2015,06,21,07,11,16.10
2015,06,21,07,12,16.20
2015,06,21,07,13,16.20
2015,06,21,07,14,16.20
2015,06,21,07,15,16.30
2015,06,21,07,16,16.30
2015,06,21,07,17,16.30
2015,06,21,07,18,16.30
2015,06,21,07,19,16.40
2015,06,21,07,20,16.50
2015,06,21,07,21,16.50
2015,06,21,07,22,16.50
2015,06,21,07,23,16.60
2015,06,21,07,24,16.60
2015,06,21,07,25,16.60
2015,06,21,07,26,16.70
2015,06,21,07,27,16.70
2015,06,21,07,28,16.70
2015,06,21,07,29,16.70
2015,06,21,07,30,16.70
2015,06,21,07,31,16.70
2015,06,21,07,32,16.80
2015,06,21,07,33,16.80
2015,06,21,07,34,16.80
2015,06,21,07,35,16.80
2015,06,21,07,36,16.80
2015,06,21,07,37,16.80
2015,06,21,07,38,16.80
2015,06,21,07,39,16.90
2015,06,21,07,40,16.90
2015,06,21,07,41,16.90
2015,06,21,07,42,16.90
2015,06,21,07,43,17.00
2015,06,21,07,44,17.00
2015,06,21,07,45,17.10
2015,06,21,07,46,17.10
2015,06,21,07,47,17.10
2015,06,21,07,48,17.10
2015,06,21,07,49,17.20
2015,06,21,07,50,17.20
2015,06,21,07,51,17.20
2015,06,21,07,52,17.20
2015,06,21,07,53,17.20
2015,06,21,07,54,17.20
2015,06,21,07,55,17.20
2015,06,21,07,56,17.20
2015,06,21,07,57,17.30
2015,06,21,07,58,17.30
2015,06,21,07,59,17.30
2015,06,21,08,00,17.40
2015,06,21,08,01,17.40
2015,06,21,08,02,17.40
2015,06,21,08,03,17.40
2015,06,21,08,04,17.40
2015,06,21,08,05,17.40
2015,06,21,08,06,17.40
2015,06,21,08,07,17.50
2015,06,21,08,08,17.50
2015,06,21,08,09,17.60
2015,06,21,08,10,17.60
2015,06,21,08,11,17.60
2015,06,21,08,12,17.60
2015,06,21,08,13,17.60
2015,06,21,08,14,17.70
2015,06,21,08,15,17.70
2015,06,21,08,16,17.70
2015,06,21,08,17,17.80
2015,06,21,08,18,17.80
2015,06,21,08,19,17.80
2015,06,21,08,20,17.90
2015,06,21,08,21,17.90
2015,06,21,08,22,17.90
2015,06,21,08,23,18.00
2015,06,21,08,24,18.00
2015,06,21,08,25,18.10
2015,06,21,08,26,18.10
2015,06,21,08,27,18.10
2015,06,21,08,28,18.20
2015,06,21,08,29,18.20
2015,06,21,08,30,18.30
2015,06,21,08,31,18.30
2015,06,21,08,32,18.30
2015,06,21,08,33,18.30
2015,06,21,08,34,18.30
2015,06,21,08,35,18.30
2015,06,21,08,36,18.30
2015,06,21,08,37,18.30
2015,06,21,08,38,18.40
2015,06,21,08,39,18.40
2015,06,21,08,40,18.40
2015,06,21,08,41,18.50
2015,06,21,08,42,18.50
2015,06,21,08,43,18.60
2015,06,21,08,44,18.60
2015,06,21,08,45,18.60
2015,06,21,08,46,18.70
2015,06,21,08,47,18.70
2015,06,21,08,48,18.70
2015,06,21,08,49,18.80
2015,06,21,08,50,18.80
2015,06,21,08,51,18.80
2015,06,21,08,52,18.80
2015,06,21,08,53,18.80
2015,06,21,08,54,18.80
2015,06,21,08,55,18.80
2015,06,21,08,56,18.80
2015,06,21,08,57,18.80
2015,06,21,08,58,18.90
2015,06,21,08,59,18.90
2015,06,21,09,00,18.90
2015,06,21,09,01,19.00
2015,06,21,09,02,19.00
2015,06,21,09,03,19.10
2015,06,21,09,04,19.10
2015,06,21,09,05,19.10
2015,06,21,09,06,19.10
2015,06,21,09,07,19.10
2015,06,21,09,08,19.10
2015,06,21,09,09,19.10
2015,06,21,09,10,19.20
2015,06,21,09,11,19.20
2015,06,21,09,12,19.30
2015,06,21,09,13,19.30
2015,06,21,09,14,19.30
2015,06,21,09,15,19.20
2015,06,21,09,16,19.30
2015,06,21,09,17,19.30
2015,06,21,09,18,19.40
2015,06,21,09,19,19.40
2015,06,21,09,20,19.40
2015,06,21,09,21,19.40
2015,06,21,09,22,19.40
2015,06,21,09,23,19.40
2015,06,21,09,24,19.40
2015,06,21,09,25,19.40
2015,06,21,09,26,19.40
2015,06,21,09,27,19.50
2015,06,21,09,28,19.50
2015,06,21,09,29,19.50
2015,06,21,09,30,19.50
2015,06,21,09,31,19.40
2015,06,21,09,32,19.40
2015,06,21,09,33,19.50
2015,06,21,09,34,19.50
2015,06,21,09,35,19.60
2015,06,21,09,36,19.60
2015,06,21,09,37,19.60
2015,06,21,09,38,19.60
2015,06,21,09,39,19.60
2015,06,21,09,40,19.60
2015,06,21,09,41,19.60
2015,06,21,09,42,19.70
2015,06,21,09,43,19.70
2015,06,21,09,44,19.70
2015,06,21,09,45,19.70
2015,06,21,09,46,19.70
2015,06,21,09,47,19.80
2015,06,21,09,48,19.80
2015,06,21,09,49,19.80
2015,06,21,09,50,19.90
2015,06,21,09,51,19.90
2015,06,21,09,52,19.90
2015,06,21,09,53,20.00
2015,06,21,09,54,20.00
2015,06,21,09,55,20.10
2015,06,21,09,56,20.20
2015,06,21,09,57,20.20
2015,06,21,09,58,20.30
2015,06,21,09,59,20.30
2015,06,21,10,00,20.30
2015,06,21,10,01,20.30
2015,06,21,10,02,20.30
2015,06,21,10,03,20.40
2015,06,21,10,04,20.40
2015,06,21,10,05,20.50
2015,06,21,10,06,20.50
2015,06,21,10,07,20.50
2015,06,21,10,08,20.50
2015,06,21,10,09,20.50
2015,06,21,10,10,20.50
2015,06,21,10,11,20.40
2015,06,21,10,12,20.50
2015,06,21,10,13,20.50
2015,06,21,10,14,20.50
2015,06,21,10,15,20.50
2015,06,21,10,16,20.50
2015,06,21,10,17,20.60
2015,06,21,10,18,20.60
2015,06,21,10,19,20.70
2015,06,21,10,20,20.80
2015,06,21,10,21,20.90
2015,06,21,10,22,21.10
2015,06,21,10,23,21.20
2015,06,21,10,24,21.20
2015,06,21,10,25,21.20
2015,06,21,10,26,21.30
2015,06,21,10,27,21.30
2015,06,21,10,28,21.20
2015,06,21,10,29,21.20
2015,06,21,10,30,21.20
2015,06,21,10,31,21.20
2015,06,21,10,32,21.30
2015,06,21,10,33,21.40
2015,06,21,10,34,21.50
2015,06,21,10,35,21.50
2015,06,21,10,36,21.50
2015,06,21,10,37,21.50
2015,06,21,10,38,21.50
2015,06,21,10,39,21.60
2015,06,21,10,40,21.60
2015,06,21,10,41,21.80
2015,06,21,10,42,21.90
2015,06,21,10,43,21.90
2015,06,21,10,44,21.90
2015,06,21,10,45,21.90
2015,06,21,10,46,21.90
2015,06,21,10,47,21.90
2015,06,21,10,48,21.90
2015,06,21,10,49,22.00
2015,06,21,10,50,22.00
2015,06,21,10,51,22.00
2015,06,21,10,52,22.00
2015,06,21,10,53,21.90
2015,06,21,10,54,21.90
2015,06,21,10,55,22.00
2015,06,21,10,56,22.00
2015,06,21,10,57,22.10
2015,06,21,10,58,22.20
2015,06,21,10,59,22.10
2015,06,21,11,00,22.10
2015,06,21,11,01,22.10
2015,06,21,11,02,22.20
2015,06,21,11,03,22.20
2015,06,21,11,04,22.20
2015,06,21,11,05,22.20
2015,06,21,11,06,22.20
2015,06,21,11,07,22.20
2015,06,21,11,08,22.20
2015,06,21,11,09,22.30
2015,06,21,11,10,22.30
2015,06,21,11,11,22.40
2015,06,21,11,12,22.40
2015,06,21,11,13,22.40
2015,06,21,11,14,22.50
2015,06,21,11,15,22.50
2015,06,21,11,16,22.50
2015,06,21,11,17,22.60
2015,06,21,11,18,22.70
2015,06,21,11,19,22.70
2015,06,21,11,20,22.60
2015,06,21,11,21,22.60
2015,06,21,11,22,22.60
2015,06,21,11,23,22.60
2015,06,21,11,24,22.70
2015,06,21,11,25,22.80
2015,06,21,11,26,22.80
2015,06,21,11,27,22.90
2015,06,21,11,28,22.90
2015,06,21,11,29,22.90
2015,06,21,11,30,22.90
2015,06,21,11,31,23.00
2015,06,21,11,32,23.10
2015,06,21,11,33,23.10
2015,06,21,11,34,23.10
2015,06,21,11,35,23.20
2015,06,21,11,36,23.20
2015,06,21,11,37,23.20
2015,06,21,11,38,23.30
2015,06,21,11,39,23.40
2015,06,21,11,40,23.40
2015,06,21,11,41,23.40
2015,06,21,11,42,23.40
2015,06,21,11,43,23.50
2015,06,21,11,44,23.50
2015,06,21,11,45,23.50
2015,06,21,11,46,23.70
2015,06,21,11,47,23.70
2015,06,21,11,48,23.80
2015,06,21,11,49,23.70
2015,06,21,11,50,23.60
2015,06,21,11,51,23.50
2015,06,21,11,52,23.50
2015,06,21,11,53,23.50
2015,06,21,11,54,23.40
2015,06,21,11,55,23.40
2015,06,21,11,56,23.30
2015,06,21,11,57,23.40
2015,06,21,11,58,23.40
2015,06,21,11,59,23.40
2015,06,21,12,00,23.40
2015,06,21,12,01,23.50
2015,06,21,12,02,23.50
2015,06,21,12,03,23.40
2015,06,21,12,04,23.40
2015,06,21,12,05,23.30
2015,06,21,12,06,23.30
2015,06,21,12,07,23.40
2015,06,21,12,08,23.50
2015,06,21,12,09,23.60
2015,06,21,12,10,23.60
2015,06,21,12,11,23.60
2015,06,21,12,12,23.60
2015,06,21,12,13,23.60
2015,06,21,12,14,23.70
2015,06,21,12,15,23.70
2015,06,21,12,16,23.80
2015,06,21,12,17,23.80
2015,06,21,12,18,23.80
2015,06,21,12,19,23.70
2015,06,21,12,20,23.70
2015,06,21,12,21,23.80
2015,06,21,12,22,23.80
2015,06,21,12,23,23.80
2015,06,21,12,24,23.80
2015,06,21,12,25,23.80
2015,06,21,12,26,23.80
2015,06,21,12,27,23.90
2015,06,21,12,28,24.00
2015,06,21,12,29,24.10
2015,06,21,12,30,24.00
2015,06,21,12,31,24.00
2015,06,21,12,32,24.00
2015,06,21,12,33,23.90
2015,06,21,12,34,23.90
2015,06,21,12,35,23.80
2015,06,21,12,36,23.80
2015,06,21,12,37,23.80
2015,06,21,12,38,23.80
2015,06,21,12,39,23.90
2015,06,21,12,40,23.90
2015,06,21,12,41,24.00
2015,06,21,12,42,24.00
2015,06,21,12,43,23.90
2015,06,21,12,44,23.80
2015,06,21,12,45,23.80
2015,06,21,12,46,23.80
2015,06,21,12,47,23.80
2015,06,21,12,48,23.80
2015,06,21,12,49,23.80
2015,06,21,12,50,23.70
2015,06,21,12,51,23.70
2015,06,21,12,52,23.60
2015,06,21,12,53,23.60
2015,06,21,12,54,23.70
2015,06,21,12,55,23.70
2015,06,21,12,56,23.80
2015,06,21,12,57,23.90
2015,06,21,12,58,24.00
2015,06,21,12,59,24.10
2015,06,21,13,00,24.10
2015,06,21,13,01,24.20
2015,06,21,13,02,24.30
2015,06,21,13,03,24.40
2015,06,21,13,04,24.60
2015,06,21,13,05,24.60
2015,06,21,13,06,24.70
2015,06,21,13,07,24.80
2015,06,21,13,08,24.90
2015,06,21,13,09,25.00
2015,06,21,13,10,25.00
2015,06,21,13,11,25.00
2015,06,21,13,12,24.90
2015,06,21,13,13,24.80
2015,06,21,13,14,24.60
2015,06,21,13,15,24.50
2015,06,21,13,16,24.50
2015,06,21,13,17,24.50
2015,06,21,13,18,24.40
2015,06,21,13,19,24.30
2015,06,21,13,20,24.30
2015,06,21,13,21,24.30
2015,06,21,13,22,24.30
2015,06,21,13,23,24.30
2015,06,21,13,24,24.40
2015,06,21,13,25,24.50
2015,06,21,13,26,24.70
2015,06,21,13,27,24.80
2015,06,21,13,28,24.90
2015,06,21,13,29,24.90
2015,06,21,13,30,24.80
2015,06,21,13,31,24.80
2015,06,21,13,32,24.80
2015,06,21,13,33,24.70
2015,06,21,13,34,24.70
2015,06,21,13,35,24.80
2015,06,21,13,36,24.80
2015,06,21,13,37,24.70
2015,06,21,13,38,24.70
2015,06,21,13,39,24.70
2015,06,21,13,40,24.70
2015,06,21,13,41,24.70
2015,06,21,13,42,24.70
2015,06,21,13,43,24.70
2015,06,21,13,44,24.80
2015,06,21,13,45,24.80
2015,06,21,13,46,24.90
2015,06,21,13,47,25.00
2015,06,21,13,48,25.10
2015,06,21,13,49,25.30
2015,06,21,13,50,25.40
2015,06,21,13,51,25.50
2015,06,21,13,52,25.60
2015,06,21,13,53,25.60
2015,06,21,13,54,25.60
2015,06,21,13,55,25.60
2015,06,21,13,56,25.60
2015,06,21,13,57,25.50
2015,06,21,13,58,25.60
2015,06,21,13,59,25.60
2015,06,21,14,00,25.60
2015,06,21,14,01,25.70
2015,06,21,14,02,25.70
2015,06,21,14,03,25.80
2015,06,21,14,04,25.80
2015,06,21,14,05,25.90
2015,06,21,14,06,25.90
2015,06,21,14,07,26.00
2015,06,21,14,08,26.00
2015,06,21,14,09,26.00
2015,06,21,14,10,25.90
2015,06,21,14,11,25.90
2015,06,21,14,12,25.90
2015,06,21,14,13,25.80
2015,06,21,14,14,25.80
2015,06,21,14,15,25.90
2015,06,21,14,16,25.90
2015,06,21,14,17,25.90
2015,06,21,14,18,25.90
2015,06,21,14,19,26.00
2015,06,21,14,20,26.10
2015,06,21,14,21,26.20
2015,06,21,14,22,26.30
2015,06,21,14,23,26.40
2015,06,21,14,24,26.40
2015,06,21,14,25,26.40
2015,06,21,14,26,26.40
2015,06,21,14,27,26.30
2015,06,21,14,28,26.10
2015,06,21,14,29,26.10
2015,06,21,14,30,26.10
2015,06,21,14,31,26.20
2015,06,21,14,32,26.20
2015,06,21,14,33,26.20
2015,06,21,14,34,26.10
2015,06,21,14,35,26.00
2015,06,21,14,36,25.90
2015,06,21,14,37,25.90
2015,06,21,14,38,25.90
2015,06,21,14,39,26.00
2015,06,21,14,40,26.00
2015,06,21,14,41,26.10
2015,06,21,14,42,26.10
2015,06,21,14,43,26.20
2015,06,21,14,44,26.30
2015,06,21,14,45,26.30
2015,06,21,14,46,26.40
2015,06,21,14,47,26.40
2015,06,21,14,48,26.40
2015,06,21,14,49,26.20
2015,06,21,14,50,26.00
2015,06,21,14,51,25.80
2015,06,21,14,52,25.60
2015,06,21,14,53,25.50
2015,06,21,14,54,25.40
2015,06,21,14,55,25.30
2015,06,21,14,56,25.20
2015,06,21,14,57,25.20
2015,06,21,14,58,25.30
2015,06,21,14,59,25.60
2015,06,21,15,00,25.70
2015,06,21,15,01,25.80
2015,06,21,15,02,25.90
2015,06,21,15,03,25.90
2015,06,21,15,04,25.90
2015,06,21,15,05,25.80
2015,06,21,15,06,25.80
2015,06,21,15,07,25.70
2015,06,21,15,08,25.70
2015,06,21,15,09,25.80
2015,06,21,15,10,25.70
2015,06,21,15,11,25.60
2015,06,21,15,12,25.60
2015,06,21,15,13,25.70
2015,06,21,15,14,25.80
2015,06,21,15,15,25.80
2015,06,21,15,16,25.90
2015,06,21,15,17,26.00
2015,06,21,15,18,26.00
2015,06,21,15,19,26.10
2015,06,21,15,20,26.10
2015,06,21,15,21,26.10
2015,06,21,15,22,26.10
2015,06,21,15,23,26.20
2015,06,21,15,24,26.20
2015,06,21,15,25,26.20
2015,06,21,15,26,26.20
2015,06,21,15,27,26.20
2015,06,21,15,28,26.20
2015,06,21,15,29,26.20
2015,06,21,15,30,26.20
2015,06,21,15,31,26.20
2015,06,21,15,32,26.20
2015,06,21,15,33,26.10
2015,06,21,15,34,26.10
2015,06,21,15,35,26.10
2015,06,21,15,36,26.00
2015,06,21,15,37,26.10
2015,06,21,15,38,26.10
2015,06,21,15,39,26.20
2015,06,21,15,40,26.20
2015,06,21,15,41,26.30
2015,06,21,15,42,26.40
2015,06,21,15,43,26.40
2015,06,21,15,44,26.40
2015,06,21,15,45,26.50
2015,06,21,15,46,26.50
2015,06,21,15,47,26.50
2015,06,21,15,48,26.30
2015,06,21,15,49,26.10
2015,06,21,15,50,25.90
2015,06,21,15,51,25.80
2015,06,21,15,52,25.70
2015,06,21,15,53,25.80
2015,06,21,15,54,25.90
2015,06,21,15,55,26.00
2015,06,21,15,56,26.00
2015,06,21,15,57,25.90
2015,06,21,15,58,25.90
2015,06,21,15,59,25.90
2015,06,21,16,00,25.90
2015,06,21,16,01,25.90
2015,06,21,16,02,25.90
2015,06,21,16,03,26.00
2015,06,21,16,04,26.00
2015,06,21,16,05,25.90
2015,06,21,16,06,25.80
2015,06,21,16,07,25.80
2015,06,21,16,08,25.80
2015,06,21,16,09,25.90
2015,06,21,16,10,26.00
2015,06,21,16,11,26.10
2015,06,21,16,12,26.20
2015,06,21,16,13,26.20
2015,06,21,16,14,26.20
2015,06,21,16,15,26.20
2015,06,21,16,16,26.20
2015,06,21,16,17,26.20
2015,06,21,16,18,26.20
2015,06,21,16,19,26.20
2015,06,21,16,20,26.10
2015,06,21,16,21,26.10
2015,06,21,16,22,26.10
2015,06,21,16,23,26.00
2015,06,21,16,24,26.00
2015,06,21,16,25,26.00
2015,06,21,16,26,26.10
2015,06,21,16,27,26.20
2015,06,21,16,28,26.20
2015,06,21,16,29,26.40
2015,06,21,16,30,26.50
2015,06,21,16,31,26.50
2015,06,21,16,32,26.60
2015,06,21,16,33,26.60
2015,06,21,16,34,26.60
2015,06,21,16,35,26.60
2015,06,21,16,36,26.40
2015,06,21,16,37,26.30
2015,06,21,16,38,26.20
2015,06,21,16,39,26.10
2015,06,21,16,40,25.90
2015,06,21,16,41,25.80
2015,06,21,16,42,25.80
2015,06,21,16,43,25.70
2015,06,21,16,44,25.60
2015,06,21,16,45,25.50
2015,06,21,16,46,25.50
2015,06,21,16,47,25.50
2015,06,21,16,48,25.60
2015,06,21,16,49,25.60
2015,06,21,16,50,25.60
2015,06,21,16,51,25.70
2015,06,21,16,52,25.80
2015,06,21,16,53,25.90
2015,06,21,16,54,25.90
2015,06,21,16,55,25.90
2015,06,21,16,56,25.90
2015,06,21,16,57,25.90
2015,06,21,16,58,26.00
2015,06,21,16,59,26.00
2015,06,21,17,00,26.10
2015,06,21,17,01,26.20
2015,06,21,17,02,26.20
2015,06,21,17,03,26.30
2015,06,21,17,04,26.30
2015,06,21,17,05,26.30
2015,06,21,17,06,26.20
2015,06,21,17,07,26.10
2015,06,21,17,08,26.00
2015,06,21,17,09,25.80
2015,06,21,17,10,25.70
2015,06,21,17,11,25.60
2015,06,21,17,12,25.50
2015,06,21,17,13,25.30
2015,06,21,17,14,25.30
2015,06,21,17,15,25.30
2015,06,21,17,16,25.40
2015,06,21,17,17,25.50
2015,06,21,17,18,25.50
2015,06,21,17,19,25.50